DIRECTV 8

Last updated on Sun Apr 12 2026 00:02:51 GMT+0000 (Coordinated Universal Time)

1 28659U 05019A 26101.49711728 .00000000 00000+0 00000+0 0 9992 2 28659 0.0189 193.7348 0003230 198.8255 227.0703 1.00270420 76405
UTC large
Height (km)
Speed (km/s)
/
Latitude / Longitude
Inclination (degrees)
Orbital Period (minutes)
Azimuth
Elevation
Range (km)
Doppler Factor

Next 0 passes for location: London (51.5072 / 0.1276)

Sorry there are no passes over London.
DIRECTV 8